Regional Weather Roundup
Issued by NWS Columbia, SC

Home | Current Version | Previous Version | Text Only | Print | Product List | Glossary On
Versions: 1 2 3 4 5 6 7 8 9 10 11 12 13 14 15 16 17 18 19 20 21 22 23 24 25 26 27 28 29 30 31 32 33 34 35 36 37 38 39 40 41 42 43 44 45 46 47 48 49 50
000
ASUS42 KCAE 291110
RWRCAE
REGIONAL WEATHER ROUNDUP
NATIONAL WEATHER SERVICE COLUMBIA SC
600 AM EST THU JAN 29 2015

NOTE: "FAIR" INDICATES FEW OR NO CLOUDS BELOW 12,000 FEET WITH NO
SIGNIFICANT WEATHER AND/OR OBSTRUCTIONS TO VISIBILITY.

NOT ALL STATIONS ARE QUALITY CONTROLLED BY THE NATIONAL
WEATHER SERVICE. USE DATA WITH CAUTION...ESPECIALLY
DEWPOINT OBSERVATIONS.

SCZ001>056-GAZ040-063>065-077-291200-
...UPSTATE SOUTH CAROLINA...

CITY           SKY/WX    TMP DP  RH WIND       PRES   REMARKS
ANDERSON       PTCLDY    29  23  78 CALM      30.30F
LIBERTY        MOSUNNY   25  23  92 MISG      30.28S
SPARTANBURG    CLEAR     30  25  80 CALM      30.29F
CLEMSON        PTCLDY    32  25  75 CALM      30.29F
GREENVILLE     PTCLDY    34  19  54 S3        30.29F
GREENWOOD      PTCLDY    26  21  81 CALM      30.32F
GREER          PTCLDY    32  21  64 S5        30.28F WCI  27
ROCK HILL      CLEAR     26  21  81 CALM      30.32R
LAURENS        MOSUNNY   28  28 100 SW3       30.30F


...CENTRAL SOUTH CAROLINA...

CITY           SKY/WX    TMP DP  RH WIND       PRES   REMARKS
COLUMBIA APT   PTCLDY    26  22  84 CALM      30.35R
COLUMBIA OWENS PTCLDY    28  24  85 CALM      30.37R
DARLINGTON     PTCLDY    27  21  80 CALM      30.35S
FLORENCE       PTCLDY    27  23  85 CALM      30.34R
MCENTIRE ANGB  PTCLDY    25  22  91 NW3       30.35R
ORANGEBURG     CLEAR     28  25  88 NW3       30.36R
SUMTER SHAW    CLEAR     26  22  83 CALM      30.33R
NEWBERRY       SUNNY     27 N/A N/A S3        30.35F
AIKEN          FAIR      28  25  86 CALM      30.37R
BARNWELL         N/A     27  25  93 CALM      30.36R
MANNING        FAIR      28  28 100 CALM      30.35R
CAMDEN         FAIR      25  21  86 CALM      30.35R
LANCASTER      SUNNY     25  25 100 MISG      30.34R
WINNSBORO      SUNNY     32  23  69 S3        30.33R


...EASTERN AND COASTAL SOUTH CAROLINA...

CITY           SKY/WX    TMP DP  RH WIND       PRES   REMARKS
MYRTLE BEACH   PTCLDY    28  23  80 NW3       30.36S
N MYRTLE BCH   CLEAR     26  24  92 CALM      30.34R
CONWAY         FAIR      27  27 100 CALM      30.35R
MARION         FAIR      27  25  93 CALM      30.34F
HARTSVILLE     FAIR      28  28 100 CALM      30.34R
FLORENCE       PTCLDY    27  23  85 CALM      30.34R
DARLINGTON     PTCLDY    27  21  80 CALM      30.35S
CHARLESTON APT PTCLDY    27  25  92 NW3       30.35R
MOUNT PLEASANT LGT RAIN N/A N/A N/A CALM      30.33S
WALTERBORO     SUNNY     27 N/A N/A CALM      30.36R
BEAUFORT       FAIR      31  29  92 CALM      30.34S


...EASTERN GEORGIA...

CITY           SKY/WX    TMP DP  RH WIND       PRES   REMARKS
AUGUSTA BUSH F PTCLDY    25  23  92 CALM      30.36R
AUGUSTA DANIEL PTCLDY    36  24  62 CALM      30.34R
THOMSON        PTCLDY    29  28  96 CALM      30.37F
WASHINGTON     FAIR      36  28  75 S5        30.31F WCI  32
CLAXTON        FAIR      28  28 100 CALM      30.35R
SYLVANIA       SUNNY     29  29 100 CALM      30.36R
STATESBORO     CLEAR     28  28 100 CALM      30.35R
SAVANNAH       CLEAR     30  26  85 CALM      30.35R


...SOUTHERN NORTH CAROLINA...

CITY           SKY/WX    TMP DP  RH WIND       PRES   REMARKS
CHARLOTTE      PTCLDY    30  21  69 CALM      30.31S
MONROE         PTCLDY    28  20  71 CALM      30.32R
WADESBORO      MOSUNNY   23  20  91 CALM      30.34S
ROCKINGHAM       N/A     24  21  89 CALM      30.33R
RUTHERFORDTON  CLEAR     25  20  80 CALM      30.29S
ASHEVILLE      PTCLDY    24  19  81 S3        30.22F

$$


USA.gov is the U.S. government's official web portal to all federal, state and local government web resources and services.